Wind_Speed
8 8 7 8 11 16 18 20 23 25 24 21 22 21 20 20 21 24 26 27 27 26 25 27 33 30 29 29 29 28 29 30 20 22 23 23 23 23 22 21 22 19 19
6 4 7 13 15 17 19 20 22 25 28 27 24 21 20 21 21 22 25 26 26 26 28 27 27 29 33 32 31 30 30 30 28 21 23 22 23 20 21 19 23 20 19
5 8 12 15 14 17 21 27 29 29 27 25 23 23 24 23 22 21 23 26 29 30 32 31 32 29 28 30 32 29 29 29 29 26 23 24 24 22 20 19 23 20 21
10 12 14 14 15 20 28 31 31 30 26 24 23 24 24 23 23 23 23 25 27 30 32 32 34 34 32 30 29 30 31 28 26 27 25 25 24 21 19 16 17 18 17
13 13 14 16 22 28 31 31 29 26 26 24 23 23 22 22 24 22 23 26 27 29 30 31 32 34 36 35 30 30 29 29 26 24 23 20 22 16 14 12 16 17 14
14 15 16 19 23 25 26 27 27 26 24 23 20 20 23 23 24 28 27 27 27 28 30 30 30 32 34 37 38 41 39 29 28 25 23 22 24 20 19 17 16 14 9
15 16 17 17 21 24 26 26 25 24 21 21 21 21 22 22 26 28 27 26 27 28 29 29 30 30 29 31 33 37 39 41 45 34 27 27 25 25 22 21 20 18 15
17 18 18 19 22 24 24 24 23 18 18 21 21 21 21 24 26 26 23 24 26 28 30 31 32 32 32 31 32 32 32 33 35 42 42 37 32 30 26 26 23 22 19
21 20 19 20 21 21 22 19 18 20 19 21 20 22 23 26 25 22 21 21 24 27 30 32 33 33 34 35 33 32 31 31 30 37 37 38 40 39 31 23 23 20 20
23 21 19 19 19 20 21 20 19 19 20 21 22 22 24 23 24 19 20 20 21 23 28 30 32 36 35 34 34 31 28 33 27 29 29 36 37 40 36 36 32 24 24
19 18 19 18 18 19 18 18 19 20 20 20 22 21 22 20 20 15 20 23 24 24 25 28 26 25 29 32 35 34 34 30 28 29 28 27 29 32 38 37 38 35 28
18 19 20 19 18 18 19 21 20 20 21 22 21 21 21 19 15 14 20 24 22 23 27 29 28 26 26 27 31 32 32 34 31 24 26 26 27 27 29 30 29 34 34
21 22 21 21 20 18 17 20 21 21 21 21 19 18 21 24 21 19 24 25 20 18 21 29 28 28 27 28 28 27 28 29 25 20 22 25 25 26 23 26 27 31 35
22 22 21 20 19 16 15 17 18 20 21 21 16 15 17 20 21 18 18 22 20 22 24 31 31 20 20 22 23 24 25 28 26 24 23 24 22 24 27 27 27 28 29
20 18 16 16 16 16 16 19 21 23 22 20 17 17 15 25 25 22 23 25 25 27 22 24 24 13 13 14 16 20 22 23 23 23 21 21 22 24 28 29 28 27 27
21 17 17 16 15 19 20 25 33 21 23 22 12 12 26 29 31 20 20 22 24 18 17 14 16 16 15 13 13 13 16 17 19 17 18 20 20 22 25 25 25 23 21
24 24 20 20 20 21 20 19 19 24 23 10 5 23 23 30 22 16 16 20 17 13 11 13 12 16 17 18 15 8 8 8 11 13 16 16 17 16 13 18 23 18 17
24 22 20 19 20 22 21 22 18 16 14 17 22 22 23 18 10 11 13 13 9 7 11 11 10 11 15 18 23 15 15 11 9 6 4 1 9 16 14 14 12 9 13
21 20 20 21 20 22 22 18 15 16 12 15 23 20 18 13 14 9 7 4 9 11 13 12 12 11 13 15 21 24 21 20 19 19 15 10 9 8 6 14 16 17 16
19 19 20 17 18 18 18 13 14 14 15 16 18 16 21 16 12 9 9 7 7 9 10 12 13 12 10 9 11 15 18 19 17 22 22 16 18 18 16 16 16 14 15
18 18 18 15 17 18 16 17 14 10 15 15 14 16 14 15 13 12 10 11 12 9 11 12 13 15 15 13 13 14 13 12 14 16 15 17 21 22 21 21 21 21 22
17 18 17 17 17 20 18 18 16 15 16 15 17 16 18 15 15 16 14 13 13 11 10 11 11 12 13 13 14 16 16 16 16 14 13 13 13 14 14 13 15 16 16
18 18 18 19 19 19 19 20 19 17 17 17 15 17 17 17 18 20 18 19 17 14 10 13 13 12 13 14 13 13 12 11 10 9 11 12 12 12 12 12 11 11 11
19 19 18 18 21 20 23 18 18 20 19 18 17 16 15 18 22 22 23 21 20 17 16 16 18 19 16 13 13 13 12 7 5 3 4 6 7 6 7 7 7 7 7
19 19 21 20 21 20 18 17 20 17 18 18 17 16 17 21 21 21 24 22 22 20 21 23 22 20 20 19 16 15 13 8 3 7 4 2 3 4 4 4 3 3 3
18 18 18 18 18 19 21 19 20 20 19 17 16 18 23 20 17 20 21 21 20 19 18 19 20 22 23 23 23 19 13 9 6 3 4 3 2 2 3 3 3 3 2
Wind_Direction
230 238 252 291 305 300 298 299 300 301 297 288 285 285 284 281 279 273 269 261 247 244 243 239 244 250 250 248 243 242 242 244 249 256 258 263 258 264 267 263 277 269 268
220 258 297 298 301 304 303 303 303 297 295 290 287 284 284 285 283 278 274 266 254 245 249 248 246 246 246 244 242 240 239 240 245 247 249 252 257 264 269 265 274 271 265
269 285 285 289 299 310 311 310 308 301 293 286 282 285 288 288 286 281 277 272 265 258 249 249 252 251 248 243 238 242 240 237 239 246 249 253 257 261 265 264 266 263 264
265 267 273 288 307 316 315 312 308 302 291 283 284 285 285 286 285 283 279 277 273 268 260 251 250 252 251 250 244 240 240 238 233 238 244 245 252 252 247 255 264 260 246
263 267 276 304 314 315 314 310 305 298 287 283 285 285 284 287 286 283 282 280 277 274 270 262 256 252 253 252 250 250 244 239 238 235 238 243 239 221 227 241 250 255 236
268 271 293 305 310 311 307 304 301 298 291 284 282 285 288 288 287 286 289 282 278 276 274 271 264 257 255 257 257 255 251 250 240 234 241 236 240 229 231 238 244 241 246
286 287 292 301 305 308 309 305 301 298 293 290 291 289 287 289 291 297 297 289 279 272 270 266 263 259 256 256 258 256 256 254 252 246 238 237 236 232 231 231 236 234 238
290 291 296 303 303 305 304 301 297 293 295 295 294 292 290 290 291 298 308 301 288 280 272 262 255 255 254 252 256 254 248 250 248 249 246 244 239 236 233 230 233 233 254
295 292 290 297 299 300 296 295 298 300 298 295 294 292 294 293 290 293 305 301 302 294 280 270 260 256 252 252 254 252 251 250 249 244 247 253 250 242 233 232 228 232 249
297 287 290 294 294 294 296 299 299 298 296 295 293 293 294 289 295 293 305 295 298 308 298 280 271 259 254 254 247 250 248 248 243 238 244 248 249 236 242 238 236 240 238
299 291 295 297 297 296 296 298 300 298 296 293 294 297 293 294 296 292 314 309 294 299 299 285 279 273 264 260 251 251 247 253 246 237 233 238 239 239 238 237 237 238 234
307 303 302 300 296 295 297 301 300 297 293 291 290 292 291 311 315 307 317 311 296 284 285 286 277 276 276 267 255 253 256 254 240 227 224 228 231 231 234 231 231 229 233
309 302 301 297 294 299 304 306 301 297 288 287 288 289 296 314 318 322 317 311 303 297 304 317 302 275 271 268 257 254 256 252 233 217 218 223 225 233 239 234 234 235 237
315 309 304 299 298 302 304 309 307 302 297 294 287 290 301 309 310 309 304 310 312 320 314 324 329 285 269 266 261 254 253 245 230 224 224 227 228 227 232 236 235 226 228
331 317 310 313 307 303 301 303 307 300 296 286 285 290 308 310 303 291 308 312 315 317 313 338 337 318 277 264 260 258 256 246 218 216 219 226 231 235 233 230 228 226 222
319 313 316 313 307 304 304 310 316 298 305 291 279 309 314 303 302 292 303 313 319 322 313 317 332 337 346 330 262 252 233 220 210 213 221 226 232 231 231 234 230 214 205
315 316 313 303 299 300 302 298 303 315 324 9 301 335 321 314 298 285 302 317 319 332 321 330 349 346 348 346 343 224 184 179 213 227 236 243 240 204 202 230 216 199 190
321 321 317 313 312 305 304 299 299 301 319 336 334 318 313 313 308 298 316 328 338 353 342 341 348 4 2 2 10 6 62 83 77 84 89 155 230 215 208 200 209 156 159
318 322 324 320 316 313 314 314 313 309 326 333 337 341 349 357 335 323 339 329 358 12 7 6 3 360 10 14 28 33 48 56 65 62 61 86 99 103 127 172 178 176 168
326 332 338 333 332 338 341 325 318 355 348 352 337 344 352 348 344 337 342 17 20 21 19 18 17 17 16 10 31 48 51 54 58 64 59 61 75 83 76 76 88 92 94
349 350 354 358 357 350 1 2 348 352 10 357 344 7 360 354 340 341 352 359 8 12 11 13 21 26 31 30 35 48 49 55 56 60 66 72 78 76 78 84 89 90 93
4 12 12 11 8 5 9 14 15 19 18 16 2 359 15 18 13 8 7 2 7 38 22 2 13 22 19 24 30 35 39 43 49 56 63 70 73 80 88 92 95 98 102
22 15 16 16 13 19 19 21 20 14 14 23 17 14 19 22 27 22 15 19 25 30 24 27 24 21 13 7 15 17 19 32 31 42 61 73 79 79 78 79 85 92 95
24 21 17 19 21 24 23 14 27 27 23 22 27 29 29 36 29 26 28 28 29 31 32 29 29 29 22 20 11 12 7 12 4 30 40 50 76 79 82 82 81 89 103
21 22 21 19 21 19 20 19 31 28 34 29 23 24 27 43 36 28 30 30 33 36 33 36 34 32 32 31 23 18 14 24 327 14 5 355 42 50 42 44 62 92 106
21 21 20 22 21 22 19 18 24 22 25 22 21 23 31 32 31 30 25 25 27 27 28 31 29 30 31 31 28 22 18 22 25 355 10 353 355 357 8 2 358 336 327
Height
813 815 816 817 817 817 816 814 812 810 807 805 803 801 800 799 798 797 795 794 791 791 790 788 786 786 786 786 787 788 790 790 783 780 783 785 785 785 785 782 782 781 782
814 813 813 814 814 813 811 810 808 805 802 799 796 793 792 791 790 789 787 786 784 782 782 782 779 779 777 778 779 778 781 781 779 774 775 778 778 779 778 777 776 775 776
810 811 811 811 810 808 806 803 800 797 794 791 789 787 785 783 782 781 780 778 776 774 772 772 771 771 770 769 769 770 769 769 770 770 768 770 771 772 772 772 770 769 770
807 808 808 807 805 803 800 797 794 791 787 784 782 780 778 776 775 773 771 770 767 765 762 761 761 760 759 759 759 759 760 760 761 762 760 761 764 764 766 768 766 763 764
805 805 804 801 799 798 795 792 789 785 781 778 775 773 771 769 767 766 764 761 759 756 753 752 751 750 749 749 751 749 750 751 752 753 751 753 755 756 758 761 761 760 758
802 801 798 796 795 793 790 787 782 778 775 772 769 766 764 761 759 758 756 753 750 747 744 743 742 741 740 739 740 739 742 742 743 744 743 744 746 752 754 756 755 755 751
799 795 793 791 789 786 783 779 775 771 769 767 763 761 758 755 750 749 747 745 741 738 735 733 731 730 730 730 728 727 729 731 734 736 735 735 738 741 745 747 746 747 745
793 790 787 785 783 781 778 775 771 766 763 761 758 755 751 748 743 741 738 736 733 728 725 723 720 718 718 719 719 718 717 718 721 723 725 725 728 733 735 736 738 741 742
786 785 783 781 778 775 772 767 764 761 757 755 751 748 744 740 737 734 732 730 726 721 717 713 711 708 706 708 709 708 707 707 708 712 714 715 719 723 726 730 731 733 733
782 779 777 774 771 769 766 762 758 755 751 748 744 741 737 733 729 728 726 724 720 714 711 705 701 698 697 697 698 698 698 696 699 702 704 706 709 712 716 720 723 721 725
778 775 772 768 766 764 761 757 752 749 745 741 738 734 731 727 723 722 720 716 712 707 701 691 693 689 686 687 687 688 685 688 690 693 695 697 700 701 704 706 710 714 715
774 770 767 764 761 758 756 751 747 743 739 736 732 728 725 721 718 716 712 708 705 701 694 690 683 679 678 676 676 676 677 680 681 682 685 687 689 690 692 695 699 703 705
770 765 762 760 757 753 750 746 742 737 733 728 725 723 720 715 712 710 705 702 699 694 689 681 672 668 666 666 666 666 669 670 671 672 674 676 679 683 686 689 691 693 695
767 762 758 754 751 748 745 742 738 733 728 723 721 719 717 711 708 705 701 697 692 687 681 673 663 657 657 657 657 658 658 659 661 663 665 669 672 675 677 680 681 683 686
764 760 755 751 747 743 740 737 733 728 725 721 718 716 714 707 704 702 698 693 688 683 677 670 661 653 651 650 649 649 650 649 651 654 658 661 663 666 666 668 670 673 676
762 757 752 749 744 740 735 728 723 721 717 713 711 711 708 706 700 697 694 690 685 680 674 669 665 658 651 648 645 643 643 643 644 648 652 654 655 657 659 661 663 663 665
762 755 749 745 741 735 730 726 719 714 710 708 708 707 703 698 694 693 691 687 682 678 675 670 666 660 655 648 642 639 638 638 641 644 646 647 647 648 651 653 654 656 658
759 753 747 742 737 731 727 721 718 715 711 708 707 703 698 693 690 690 688 684 680 677 674 670 668 664 659 651 643 632 630 639 640 642 642 643 644 646 648 648 648 651 656
756 750 744 739 734 729 724 719 716 711 710 707 702 700 695 690 689 688 686 684 681 678 675 671 668 666 661 658 653 646 643 642 643 644 644 644 645 644 645 647 650 652 655
753 748 743 738 732 727 722 718 715 713 710 706 702 700 696 693 691 689 687 684 682 679 678 675 671 668 666 664 661 658 656 654 652 650 649 648 648 650 650 647 649 653 654
754 748 743 737 734 729 723 720 717 714 712 709 705 702 699 696 694 691 689 685 684 683 682 679 676 673 670 668 666 664 662 661 659 658 657 657 657 658 658 658 658 659 661
755 750 744 741 737 733 727 724 721 719 717 713 709 705 701 700 698 696 693 691 689 686 686 684 680 678 677 674 670 668 668 666 665 665 665 664 665 666 667 668 668 669 671
756 751 748 745 740 736 733 729 726 723 722 717 716 713 710 707 703 701 698 696 692 689 687 688 686 684 682 679 678 677 676 674 673 672 671 670 671 671 671 673 674 675 677
760 756 753 749 745 741 737 735 732 730 727 724 721 719 716 712 708 705 703 701 698 696 693 691 690 688 686 684 682 680 678 677 677 676 676 675 675 675 675 676 677 679 680
764 761 757 753 749 747 744 742 737 736 733 731 728 725 723 714 714 713 709 707 705 702 699 696 694 692 689 686 684 682 680 679 678 678 678 678 679 679 679 679 680 681 682
769 765 762 758 755 752 749 746 743 741 737 736 734 730 724 721 721 718 716 714 711 709 708 704 702 699 694 692 690 687 683 680 680 680 681 681 680 679 679 680 681 680 681